Time,TemperatureF,DewpointF,PressureIn,WindDirection,WindDirectionDegrees,WindSpeedMPH,WindSpeedGustMPH,Humidity,HourlyPrecipIn,Conditions,Clouds,dailyrainin,SoftwareType,DateUTC
2013-10-13 00:04:00,56.8,38.9,29.47,NNW,335,1.0,2.0,51,0.00,CLR,,0.00,WeatherDisplay:10.37,2013-10-13 05:04:00,
2013-10-13 00:09:00,56.8,38.9,29.47,NNW,331,1.0,2.0,51,0.00,CLR,,0.00,WeatherDisplay:10.37,2013-10-13 05:09:00,
2013-10-13 00:14:00,57.0,39.6,29.50,NNW,337,1.0,1.0,52,0.00,CLR,,0.00,WeatherDisplay:10.37,2013-10-13 05:14:00,
2013-10-13 00:19:00,57.0,39.6,29.50,NNW,340,1.0,1.0,52,0.00,CLR,,0.00,WeatherDisplay:10.37,2013-10-13 05:19:00,
2013-10-13 00:24:00,56.3,38.9,29.50,NNW,340,1.0,1.0,52,0.00,CLR,,0.00,WeatherDisplay:10.37,2013-10-13 05:24:00,
2013-10-13 00:29:00,56.1,39.2,29.50,NNW,340,1.0,1.0,53,0.00,CLR,,0.00,WeatherDisplay:10.37,2013-10-13 05:29:00,
2013-10-13 00:34:00,56.1,39.2,29.50,NNW,338,1.0,1.0,53,0.00,CLR,,0.00,WeatherDisplay:10.37,2013-10-13 05:34:00,
2013-10-13 00:39:00,55.9,39.0,29.50,NNW,342,0.0,1.0,53,0.00,CLR,,0.00,WeatherDisplay:10.37,2013-10-13 05:39:00,
2013-10-13 00:44:00,55.8,39.4,29.50,North,350,0.0,0.0,54,0.00,CLR,,0.00,WeatherDisplay:10.37,2013-10-13 05:44:00,
2013-10-13 00:49:00,55.4,39.0,29.50,NNW,347,0.0,0.0,54,0.00,CLR,,0.00,WeatherDisplay:10.37,2013-10-13 05:49:00,
2013-10-13 00:54:00,55.4,39.0,29.50,NNW,343,0.0,0.0,54,0.00,CLR,,0.00,WeatherDisplay:10.37,2013-10-13 05:54:00,
2013-10-13 00:59:00,55.0,39.6,29.50,NNW,333,0.0,0.0,56,0.00,CLR,,0.00,WeatherDisplay:10.37,2013-10-13 05:59:00,
2013-10-13 01:05:00,54.9,39.5,29.50,NNW,330,0.0,0.0,56,0.00,CLR,,0.00,WeatherDisplay:10.37,2013-10-13 06:05:00,
2013-10-13 01:10:00,54.7,39.3,29.50,NNW,330,0.0,0.0,56,0.00,CLR,,0.00,WeatherDisplay:10.37,2013-10-13 06:10:00,
2013-10-13 01:20:00,54.9,39.5,29.50,NNW,337,0.0,0.0,56,0.00,CLR,,0.00,WeatherDisplay:10.37,2013-10-13 06:20:00,
2013-10-13 01:25:00,54.9,39.5,29.50,NNW,338,0.0,0.0,56,0.00,CLR,,0.00,WeatherDisplay:10.37,2013-10-13 06:25:00,
2013-10-13 01:30:00,55.2,39.3,29.50,NNW,335,0.0,0.0,55,0.00,CLR,,0.00,WeatherDisplay:10.37,2013-10-13 06:30:00,
2013-10-13 01:35:00,55.2,39.3,29.50,NNW,335,0.0,0.0,55,0.00,CLR,,0.00,WeatherDisplay:10.37,2013-10-13 06:35:00,
2013-10-13 01:40:00,55.2,39.3,29.50,NNW,335,0.0,0.0,55,0.00,CLR,,0.00,WeatherDisplay:10.37,2013-10-13 06:40:00,
2013-10-13 01:45:00,55.4,38.1,29.50,NNW,338,0.0,0.0,52,0.00,CLR,,0.00,WeatherDisplay:10.37,2013-10-13 06:45:00,
2013-10-13 01:50:00,55.4,38.1,29.50,NNW,340,0.0,0.0,52,0.00,CLR,,0.00,WeatherDisplay:10.37,2013-10-13 06:50:00,
2013-10-13 01:55:00,55.4,38.1,29.53,NNW,338,1.0,1.0,52,0.00,CLR,,0.00,WeatherDisplay:10.37,2013-10-13 06:55:00,
2013-10-13 02:00:00,55.4,38.1,29.53,NNW,335,1.0,1.0,52,0.00,CLR,,0.00,WeatherDisplay:10.37,2013-10-13 07:00:00,
2013-10-13 02:05:00,55.4,38.1,29.53,NNW,335,1.0,1.0,52,0.00,CLR,,0.00,WeatherDisplay:10.37,2013-10-13 07:05:00,
2013-10-13 02:10:00,54.7,37.9,29.53,NNW,341,1.0,1.0,53,0.00,CLR,,0.00,WeatherDisplay:10.37,2013-10-13 07:10:00,
2013-10-13 02:15:00,54.7,37.9,29.53,North,350,1.0,1.0,53,0.00,CLR,,0.00,WeatherDisplay:10.37,2013-10-13 07:15:00,
2013-10-13 02:20:00,54.5,38.2,29.53,NNW,342,0.0,1.0,54,0.00,CLR,,0.00,WeatherDisplay:10.37,2013-10-13 07:20:00,
2013-10-13 02:25:00,54.5,38.2,29.53,NNW,337,0.0,0.0,54,0.00,CLR,,0.00,WeatherDisplay:10.37,2013-10-13 07:25:00,
2013-10-13 02:30:00,54.5,38.2,29.53,NNW,335,0.0,0.0,54,0.00,CLR,,0.00,WeatherDisplay:10.37,2013-10-13 07:30:00,
2013-10-13 02:35:00,54.5,38.2,29.53,NNW,335,0.0,0.0,54,0.00,CLR,,0.00,WeatherDisplay:10.37,2013-10-13 07:35:00,
2013-10-13 02:40:00,54.5,38.2,29.53,NNW,335,0.0,0.0,54,0.00,CLR,,0.00,WeatherDisplay:10.37,2013-10-13 07:40:00,
2013-10-13 02:45:00,54.5,38.2,29.53,NNW,335,0.0,0.0,54,0.00,CLR,,0.00,WeatherDisplay:10.37,2013-10-13 07:45:00,
2013-10-13 02:50:00,54.5,38.2,29.53,NNW,335,0.0,0.0,54,0.00,CLR,,0.00,WeatherDisplay:10.37,2013-10-13 07:50:00,
2013-10-13 02:55:00,54.5,38.2,29.53,NNW,335,0.0,0.0,54,0.00,CLR,,0.00,WeatherDisplay:10.37,2013-10-13 07:55:00,
2013-10-13 03:00:00,54.5,38.2,29.53,NNW,335,0.0,0.0,54,0.00,CLR,,0.00,WeatherDisplay:10.37,2013-10-13 08:00:00,
2013-10-13 03:05:00,54.5,38.2,29.53,NNW,335,0.0,0.0,54,0.00,CLR,,0.00,WeatherDisplay:10.37,2013-10-13 08:05:00,
2013-10-13 03:10:00,54.5,38.2,29.53,NNW,335,0.0,0.0,54,0.00,CLR,,0.00,WeatherDisplay:10.37,2013-10-13 08:10:00,
2013-10-13 03:15:00,51.4,38.8,29.53,NNW,335,0.0,0.0,62,0.00,CLR,,0.00,WeatherDisplay:10.37,2013-10-13 08:15:00,
2013-10-13 03:20:00,51.4,38.8,29.53,NNW,340,0.0,0.0,62,0.00,CLR,,0.00,WeatherDisplay:10.37,2013-10-13 08:20:00,
2013-10-13 03:25:00,51.4,38.8,29.53,NNW,340,0.0,0.0,62,0.00,CLR,,0.00,WeatherDisplay:10.37,2013-10-13 08:25:00,
2013-10-13 03:30:00,52.0,38.5,29.53,NW,325,0.0,0.0,60,0.00,CLR,,0.00,WeatherDisplay:10.37,2013-10-13 08:30:00,
2013-10-13 03:35:00,52.0,38.5,29.53,NW,320,0.0,0.0,60,0.00,CLR,,0.00,WeatherDisplay:10.37,2013-10-13 08:35:00,
2013-10-13 03:40:00,52.0,38.5,29.53,NW,320,0.0,0.0,60,0.00,CLR,,0.00,WeatherDisplay:10.37,2013-10-13 08:40:00,
2013-10-13 03:45:00,52.0,38.5,29.53,NW,320,0.0,0.0,60,0.00,CLR,,0.00,WeatherDisplay:10.37,2013-10-13 08:45:00,
2013-10-13 03:50:00,52.5,38.2,29.53,NNW,327,0.0,0.0,58,0.00,CLR,,0.00,WeatherDisplay:10.37,2013-10-13 08:50:00,
2013-10-13 03:55:00,52.5,38.2,29.53,NNW,327,0.0,0.0,58,0.00,CLR,,0.00,WeatherDisplay:10.37,2013-10-13 08:55:00,
2013-10-13 04:00:00,52.5,37.7,29.53,NNW,329,0.0,0.0,57,0.00,CLR,,0.00,WeatherDisplay:10.37,2013-10-13 09:00:00,
2013-10-13 04:05:00,52.5,37.7,29.53,NNW,330,0.0,0.0,57,0.00,CLR,,0.00,WeatherDisplay:10.37,2013-10-13 09:05:00,
2013-10-13 04:10:00,52.7,37.9,29.53,NNW,336,1.0,1.0,57,0.00,CLR,,0.00,WeatherDisplay:10.37,2013-10-13 09:10:00,
2013-10-13 04:15:00,52.7,37.4,29.53,NNW,340,1.0,1.0,56,0.00,CLR,,0.00,WeatherDisplay:10.37,2013-10-13 09:15:00,
2013-10-13 04:20:00,52.5,37.3,29.53,NNW,338,1.0,1.0,56,0.00,CLR,,0.00,WeatherDisplay:10.37,2013-10-13 09:20:00,
2013-10-13 04:25:00,52.5,37.3,29.53,NNW,334,1.0,1.0,56,0.00,CLR,,0.00,WeatherDisplay:10.37,2013-10-13 09:25:00,
2013-10-13 04:30:00,52.3,38.0,29.56,NW,326,1.0,1.0,58,0.00,CLR,,0.00,WeatherDisplay:10.37,2013-10-13 09:30:00,
2013-10-13 04:35:00,52.0,38.5,29.56,NW,320,1.0,1.0,60,0.00,CLR,,0.00,WeatherDisplay:10.37,2013-10-13 09:35:00,
2013-10-13 04:40:00,51.4,38.8,29.56,NW,320,1.0,1.0,62,0.00,CLR,,0.00,WeatherDisplay:10.37,2013-10-13 09:40:00,
2013-10-13 04:45:00,51.3,38.7,29.56,NW,320,1.0,1.0,62,0.00,CLR,,0.00,WeatherDisplay:10.37,2013-10-13 09:45:00,
2013-10-13 04:50:00,50.7,38.6,29.56,NW,320,1.0,1.0,63,0.00,CLR,,0.00,WeatherDisplay:10.37,2013-10-13 09:50:00,
2013-10-13 04:55:00,50.0,38.3,29.56,NW,320,0.0,1.0,64,0.00,CLR,,0.00,WeatherDisplay:10.37,2013-10-13 09:55:00,
2013-10-13 05:00:00,49.3,38.4,29.56,NW,320,0.0,1.0,66,0.00,CLR,,0.00,WeatherDisplay:10.37,2013-10-13 10:00:00,
2013-10-13 05:05:00,49.1,38.2,29.56,NW,320,0.0,0.0,66,0.00,CLR,,0.00,WeatherDisplay:10.37,2013-10-13 10:05:00,
2013-10-13 05:10:00,48.7,37.9,29.56,NW,320,0.0,0.0,66,0.00,CLR,,0.00,WeatherDisplay:10.37,2013-10-13 10:10:00,
2013-10-13 05:15:00,48.2,37.4,29.56,NW,320,0.0,0.0,66,0.00,CLR,,0.00,WeatherDisplay:10.37,2013-10-13 10:15:00,
2013-10-13 05:20:00,48.0,38.0,29.56,NW,320,0.0,0.0,68,0.00,CLR,,0.00,WeatherDisplay:10.37,2013-10-13 10:20:00,
2013-10-13 05:25:00,47.7,37.6,29.56,NW,320,0.0,0.0,68,0.00,CLR,,0.00,WeatherDisplay:10.37,2013-10-13 10:25:00,
2013-10-13 05:30:00,47.7,38.0,29.56,NW,320,0.0,0.0,69,0.00,CLR,,0.00,WeatherDisplay:10.37,2013-10-13 10:30:00,
2013-10-13 05:35:00,47.5,37.8,29.56,NW,320,0.0,0.0,69,0.00,CLR,,0.00,WeatherDisplay:10.37,2013-10-13 10:35:00,
2013-10-13 05:40:00,47.3,38.0,29.56,NW,320,0.0,0.0,70,0.00,CLR,,0.00,WeatherDisplay:10.37,2013-10-13 10:40:00,
2013-10-13 05:45:00,47.1,37.8,29.59,NW,320,0.0,0.0,70,0.00,CLR,,0.00,WeatherDisplay:10.37,2013-10-13 10:45:00,
2013-10-13 05:50:00,47.1,37.8,29.59,NW,320,0.0,0.0,70,0.00,CLR,,0.00,WeatherDisplay:10.37,2013-10-13 10:50:00,
2013-10-13 05:55:00,47.1,37.8,29.59,NW,320,0.0,0.0,70,0.00,CLR,,0.00,WeatherDisplay:10.37,2013-10-13 10:55:00,
2013-10-13 06:00:00,47.1,38.2,29.59,NW,320,0.0,0.0,71,0.00,CLR,,0.00,WeatherDisplay:10.37,2013-10-13 11:00:00,
2013-10-13 06:05:00,46.8,38.2,29.59,NW,320,0.0,0.0,72,0.00,CLR,,0.00,WeatherDisplay:10.37,2013-10-13 11:05:00,
2013-10-13 06:10:00,46.8,38.2,29.59,NW,320,0.0,0.0,72,0.00,CLR,,0.00,WeatherDisplay:10.37,2013-10-13 11:10:00,
2013-10-13 06:15:00,46.8,38.6,29.59,NW,320,0.0,0.0,73,0.00,CLR,,0.00,WeatherDisplay:10.37,2013-10-13 11:15:00,
2013-10-13 06:20:00,46.8,38.6,29.59,NW,320,0.0,0.0,73,0.00,CLR,,0.00,WeatherDisplay:10.37,2013-10-13 11:20:00,
2013-10-13 06:25:00,46.8,38.2,29.59,NW,320,0.0,0.0,72,0.00,CLR,,0.00,WeatherDisplay:10.37,2013-10-13 11:25:00,
2013-10-13 06:30:00,46.6,38.0,29.59,NW,320,0.0,0.0,72,0.00,CLR,,0.00,WeatherDisplay:10.37,2013-10-13 11:30:00,
2013-10-13 06:35:00,46.6,38.0,29.59,NW,320,0.0,0.0,72,0.00,CLR,,0.00,WeatherDisplay:10.37,2013-10-13 11:35:00,
2013-10-13 06:40:00,46.6,38.0,29.59,NW,320,0.0,0.0,72,0.00,CLR,,0.00,WeatherDisplay:10.37,2013-10-13 11:40:00,
2013-10-13 06:45:00,46.6,38.0,29.59,NW,320,0.0,0.0,72,0.00,CLR,,0.00,WeatherDisplay:10.37,2013-10-13 11:45:00,
2013-10-13 06:50:00,46.4,37.9,29.59,NW,320,0.0,0.0,72,0.00,CLR,,0.00,WeatherDisplay:10.37,2013-10-13 11:50:00,
2013-10-13 06:55:00,46.2,37.7,29.59,NW,320,0.0,0.0,72,0.00,CLR,,0.00,WeatherDisplay:10.37,2013-10-13 11:55:00,
2013-10-13 07:00:00,45.5,37.0,29.59,NW,320,0.0,0.0,72,0.00,CLR,,0.00,WeatherDisplay:10.37,2013-10-13 12:00:00,
2013-10-13 07:05:00,45.3,36.5,29.59,NW,320,0.0,0.0,71,0.00,CLR,,0.00,WeatherDisplay:10.37,2013-10-13 12:05:00,
2013-10-13 07:10:00,45.5,36.6,29.59,NW,320,0.0,0.0,71,0.00,CLR,,0.00,WeatherDisplay:10.37,2013-10-13 12:10:00,
2013-10-13 07:15:00,46.0,37.2,29.59,NW,320,0.0,0.0,71,0.00,CLR,,0.00,WeatherDisplay:10.37,2013-10-13 12:15:00,
2013-10-13 07:20:00,46.6,37.3,29.59,NW,320,0.0,0.0,70,0.00,CLR,,0.00,WeatherDisplay:10.37,2013-10-13 12:20:00,
2013-10-13 07:25:00,46.9,37.7,29.59,NW,320,0.0,0.0,70,0.00,CLR,,0.00,WeatherDisplay:10.37,2013-10-13 12:25:00,
2013-10-13 07:30:00,47.5,37.8,29.59,NW,320,0.0,0.0,69,0.00,CLR,,0.00,WeatherDisplay:10.37,2013-10-13 12:30:00,
2013-10-13 07:35:00,48.4,37.9,29.62,NW,320,0.0,0.0,67,0.00,CLR,,0.00,WeatherDisplay:10.37,2013-10-13 12:35:00,
2013-10-13 07:40:00,48.6,37.7,29.62,NW,320,0.0,0.0,66,0.00,CLR,,0.00,WeatherDisplay:10.37,2013-10-13 12:40:00,
2013-10-13 07:45:00,49.1,37.8,29.62,NW,321,0.0,0.0,65,0.00,CLR,,0.00,WeatherDisplay:10.37,2013-10-13 12:45:00,
2013-10-13 07:50:00,49.5,38.2,29.62,NNW,338,0.0,0.0,65,0.00,CLR,,0.00,WeatherDisplay:10.37,2013-10-13 12:50:00,
2013-10-13 07:55:00,49.6,38.3,29.62,NNW,336,0.0,0.0,65,0.00,CLR,,0.00,WeatherDisplay:10.37,2013-10-13 12:55:00,
2013-10-13 08:00:00,50.2,38.1,29.62,NNW,334,0.0,0.0,63,0.00,CLR,,0.00,WeatherDisplay:10.37,2013-10-13 13:00:00,
2013-10-13 08:05:00,50.7,38.2,29.62,NNW,340,0.0,0.0,62,0.00,CLR,,0.00,WeatherDisplay:10.37,2013-10-13 13:05:00,
2013-10-13 08:10:00,50.9,38.3,29.62,NNW,340,0.0,0.0,62,0.00,CLR,,0.00,WeatherDisplay:10.37,2013-10-13 13:10:00,
2013-10-13 08:15:00,51.4,38.8,29.62,NNW,344,0.0,0.0,62,0.00,CLR,,0.00,WeatherDisplay:10.37,2013-10-13 13:15:00,
2013-10-13 08:20:00,51.8,38.8,29.62,North,350,0.0,0.0,61,0.00,CLR,,0.00,WeatherDisplay:10.37,2013-10-13 13:20:00,
2013-10-13 08:25:00,52.2,38.7,29.62,NNW,345,1.0,1.0,60,0.00,CLR,,0.00,WeatherDisplay:10.37,2013-10-13 13:25:00,
2013-10-13 08:30:00,52.5,38.6,29.62,NNW,344,1.0,1.0,59,0.00,CLR,,0.00,WeatherDisplay:10.37,2013-10-13 13:30:00,
2013-10-13 08:35:00,53.2,39.3,29.62,North,349,1.0,1.0,59,0.00,CLR,,0.00,WeatherDisplay:10.37,2013-10-13 13:35:00,
2013-10-13 08:40:00,53.4,39.9,29.62,NNW,345,1.0,1.0,60,0.00,CLR,,0.00,WeatherDisplay:10.37,2013-10-13 13:40:00,
2013-10-13 08:45:00,53.6,39.2,29.62,North,354,1.0,1.0,58,0.00,CLR,,0.00,WeatherDisplay:10.37,2013-10-13 13:45:00,
2013-10-13 08:50:00,54.7,39.7,29.65,North,0,1.0,1.0,57,0.00,CLR,,0.00,WeatherDisplay:10.37,2013-10-13 13:50:00,
2013-10-13 08:55:00,55.2,40.7,29.65,North,355,1.0,1.0,58,0.00,CLR,,0.00,WeatherDisplay:10.37,2013-10-13 13:55:00,
2013-10-13 09:00:00,55.8,39.8,29.65,North,355,1.0,1.0,55,0.00,CLR,,0.00,WeatherDisplay:10.37,2013-10-13 14:00:00,
2013-10-13 09:05:00,56.3,39.9,29.65,North,355,1.0,1.0,54,0.00,CLR,,0.00,WeatherDisplay:10.37,2013-10-13 14:05:00,
2013-10-13 09:10:00,56.7,40.2,29.65,North,359,1.0,2.0,54,0.00,CLR,,0.00,WeatherDisplay:10.37,2013-10-13 14:10:00,
2013-10-13 09:15:00,57.2,39.7,29.65,North,9,1.0,2.0,52,0.00,CLR,,0.00,WeatherDisplay:10.37,2013-10-13 14:15:00,
2013-10-13 09:35:00,59.2,40.0,29.65,NNW,346,2.0,2.0,49,0.00,CLR,,0.00,WeatherDisplay:10.37,2013-10-13 14:35:00,
2013-10-13 10:45:00,65.5,37.1,29.65,NNE,31,6.0,6.0,35,0.00,CLR,,0.00,WeatherDisplay:10.37,2013-10-13 15:45:00,
2013-10-13 10:50:00,66.2,37.0,29.65,NE,38,6.0,6.0,34,0.00,CLR,,0.00,WeatherDisplay:10.37,2013-10-13 15:50:00,
2013-10-13 11:15:00,77.7,41.1,29.65,East,84,8.0,8.0,27,0.00,CLR,,0.00,WeatherDisplay:10.37,2013-10-13 16:15:00,
2013-10-13 11:20:00,76.1,37.7,29.65,East,86,8.0,8.0,25,0.00,CLR,,0.00,WeatherDisplay:10.37,2013-10-13 16:20:00,
2013-10-13 11:25:00,75.4,37.1,29.65,East,82,8.0,8.0,25,0.00,CLR,,0.00,WeatherDisplay:10.37,2013-10-13 16:25:00,
2013-10-13 11:30:00,71.6,33.9,29.65,ENE,71,8.0,8.0,25,0.00,CLR,,0.00,WeatherDisplay:10.37,2013-10-13 16:30:00,
2013-10-13 11:35:00,70.0,32.5,29.65,NE,53,8.0,8.0,25,0.00,CLR,,0.00,WeatherDisplay:10.37,2013-10-13 16:35:00,
2013-10-13 11:40:00,70.0,32.5,29.65,NE,46,8.0,9.0,25,0.00,CLR,,0.00,WeatherDisplay:10.37,2013-10-13 16:40:00,
2013-10-13 11:45:00,69.6,34.1,29.65,NE,34,9.0,9.0,27,0.00,CLR,,0.00,WeatherDisplay:10.37,2013-10-13 16:45:00,
2013-10-13 11:50:00,72.1,31.2,29.65,NNE,21,9.0,9.0,22,0.00,CLR,,0.00,WeatherDisplay:10.37,2013-10-13 16:50:00,
2013-10-13 11:55:00,70.3,29.7,29.65,North,10,9.0,9.0,22,0.00,CLR,,0.00,WeatherDisplay:10.37,2013-10-13 16:55:00,
2013-10-13 12:00:00,70.2,31.7,29.65,North,1,9.0,9.0,24,0.00,CLR,,0.00,WeatherDisplay:10.37,2013-10-13 17:00:00,
2013-10-13 12:05:00,73.0,29.6,29.65,North,8,9.0,9.0,20,0.00,CLR,,0.00,WeatherDisplay:10.37,2013-10-13 17:05:00,
2013-10-13 12:10:00,72.1,30.0,29.65,NNE,29,9.0,9.0,21,0.00,CLR,,0.00,WeatherDisplay:10.37,2013-10-13 17:10:00,
2013-10-13 12:15:00,70.5,30.9,29.65,NE,46,9.0,9.0,23,0.00,CLR,,0.00,WeatherDisplay:10.37,2013-10-13 17:15:00,
2013-10-13 12:20:00,70.0,30.5,29.65,NE,47,9.0,9.0,23,0.00,CLR,,0.00,WeatherDisplay:10.37,2013-10-13 17:20:00,
2013-10-13 12:25:00,70.2,31.7,29.65,NE,40,9.0,9.0,24,0.00,CLR,,0.00,WeatherDisplay:10.37,2013-10-13 17:25:00,
2013-10-13 12:30:00,70.5,33.0,29.65,NE,41,9.0,9.0,25,0.00,CLR,,0.00,WeatherDisplay:10.37,2013-10-13 17:30:00,
2013-10-13 12:35:00,70.2,30.6,29.65,NNE,18,9.0,10.0,23,0.00,CLR,,0.00,WeatherDisplay:10.37,2013-10-13 17:35:00,
2013-10-13 12:40:00,70.2,31.7,29.65,North,1,9.0,10.0,24,0.00,CLR,,0.00,WeatherDisplay:10.37,2013-10-13 17:40:00,
2013-10-13 12:45:00,70.5,33.0,29.65,North,360,9.0,10.0,25,0.00,CLR,,0.00,WeatherDisplay:10.37,2013-10-13 17:45:00,
2013-10-13 12:50:00,70.2,31.7,29.65,North,8,9.0,10.0,24,0.00,CLR,,0.00,WeatherDisplay:10.37,2013-10-13 17:50:00,
2013-10-13 12:55:00,70.2,30.6,29.65,North,351,8.0,9.0,23,0.00,CLR,,0.00,WeatherDisplay:10.37,2013-10-13 17:55:00,
2013-10-13 13:00:00,70.2,30.6,29.65,NNW,337,8.0,9.0,23,0.00,CLR,,0.00,WeatherDisplay:10.37,2013-10-13 18:00:00,
2013-10-13 13:05:00,69.8,31.4,29.62,North,349,8.0,8.0,24,0.00,CLR,,0.00,WeatherDisplay:10.37,2013-10-13 18:05:00,
2013-10-13 13:10:00,70.5,33.0,29.62,North,357,8.0,8.0,25,0.00,CLR,,0.00,WeatherDisplay:10.37,2013-10-13 18:10:00,
2013-10-13 13:15:00,70.5,30.9,29.62,North,7,8.0,8.0,23,0.00,CLR,,0.00,WeatherDisplay:10.37,2013-10-13 18:15:00,
2013-10-13 13:20:00,75.4,32.7,29.62,NNW,343,8.0,8.0,21,0.00,CLR,,0.00,WeatherDisplay:10.37,2013-10-13 18:20:00,
2013-10-13 13:25:00,74.1,32.8,29.62,NNW,338,8.0,8.0,22,0.00,CLR,,0.00,WeatherDisplay:10.37,2013-10-13 18:25:00,
2013-10-13 13:30:00,70.9,31.2,29.62,NW,324,7.0,8.0,23,0.00,CLR,,0.00,WeatherDisplay:10.37,2013-10-13 18:30:00,
2013-10-13 13:35:00,70.7,33.1,29.62,NNW,344,7.0,7.0,25,0.00,CLR,,0.00,WeatherDisplay:10.37,2013-10-13 18:35:00,
2013-10-13 13:40:00,71.2,33.6,29.62,North,352,7.0,7.0,25,0.00,CLR,,0.00,WeatherDisplay:10.37,2013-10-13 18:40:00,
2013-10-13 13:45:00,71.8,34.0,29.62,NNW,348,7.0,7.0,25,0.00,CLR,,0.00,WeatherDisplay:10.37,2013-10-13 18:45:00,
2013-10-13 13:50:00,71.8,32.0,29.62,North,349,7.0,7.0,23,0.00,CLR,,0.00,WeatherDisplay:10.37,2013-10-13 18:50:00,
2013-10-13 13:55:00,71.6,32.9,29.62,NNW,338,7.0,7.0,24,0.00,CLR,,0.00,WeatherDisplay:10.37,2013-10-13 18:55:00,
2013-10-13 14:00:00,71.6,32.9,29.62,NNW,335,7.0,7.0,24,0.00,CLR,,0.00,WeatherDisplay:10.37,2013-10-13 19:00:00,
2013-10-13 14:05:00,71.8,33.0,29.62,NW,326,7.0,7.0,24,0.00,CLR,,0.00,WeatherDisplay:10.37,2013-10-13 19:05:00,
2013-10-13 14:10:00,71.8,33.0,29.62,NW,321,7.0,7.0,24,0.00,CLR,,0.00,WeatherDisplay:10.37,2013-10-13 19:10:00,
2013-10-13 14:15:00,71.2,31.5,29.62,NW,324,7.0,7.0,23,0.00,CLR,,0.00,WeatherDisplay:10.37,2013-10-13 19:15:00,
2013-10-13 14:20:00,71.8,32.0,29.62,NNW,330,7.0,7.0,23,0.00,CLR,,0.00,WeatherDisplay:10.37,2013-10-13 19:20:00,
2013-10-13 14:25:00,72.1,32.3,29.62,NNW,332,6.0,7.0,23,0.00,CLR,,0.00,WeatherDisplay:10.37,2013-10-13 19:25:00,
2013-10-13 14:30:00,72.1,32.3,29.62,NNW,341,6.0,6.0,23,0.00,CLR,,0.00,WeatherDisplay:10.37,2013-10-13 19:30:00,
2013-10-13 14:40:00,71.6,28.4,29.62,North,350,6.0,6.0,20,0.00,CLR,,0.00,WeatherDisplay:10.37,2013-10-13 19:40:00,
2013-10-13 14:45:00,70.9,30.1,29.62,NNW,334,6.0,6.0,22,0.00,CLR,,0.00,WeatherDisplay:10.37,2013-10-13 19:45:00,
2013-10-13 14:50:00,71.8,28.5,29.62,NNW,334,6.0,6.0,20,0.00,CLR,,0.00,WeatherDisplay:10.37,2013-10-13 19:50:00,
2013-10-13 14:55:00,72.0,31.0,29.62,NNW,346,6.0,6.0,22,0.00,CLR,,0.00,WeatherDisplay:10.37,2013-10-13 19:55:00,
2013-10-13 15:00:00,72.7,31.6,29.62,North,354,6.0,6.0,22,0.00,CLR,,0.00,WeatherDisplay:10.37,2013-10-13 20:00:00,
2013-10-13 15:04:00,72.5,31.5,29.62,NW,322,6.0,6.0,22,0.00,CLR,,0.00,WeatherDisplay:10.37,2013-10-13 20:04:00,
2013-10-13 15:10:00,72.5,30.3,29.59,NW,307,6.0,6.0,21,0.00,CLR,,0.00,WeatherDisplay:10.37,2013-10-13 20:10:00,
2013-10-13 15:15:00,72.3,29.0,29.59,NW,311,6.0,6.0,20,0.00,CLR,,0.00,WeatherDisplay:10.37,2013-10-13 20:15:00,
2013-10-13 15:20:00,72.3,30.2,29.59,NNW,347,6.0,6.0,21,0.00,CLR,,0.00,WeatherDisplay:10.37,2013-10-13 20:20:00,
2013-10-13 15:25:00,72.0,28.7,29.59,North,351,6.0,6.0,20,0.00,CLR,,0.00,WeatherDisplay:10.37,2013-10-13 20:25:00,
2013-10-13 15:30:00,72.3,29.0,29.59,NNW,342,7.0,7.0,20,0.00,CLR,,0.00,WeatherDisplay:10.37,2013-10-13 20:30:00,
2013-10-13 15:35:00,72.1,28.8,29.59,NNW,337,6.0,7.0,20,0.00,CLR,,0.00,WeatherDisplay:10.37,2013-10-13 20:35:00,
2013-10-13 15:40:00,72.3,29.0,29.59,NNW,338,6.0,6.0,20,0.00,CLR,,0.00,WeatherDisplay:10.37,2013-10-13 20:40:00,
2013-10-13 15:45:00,71.6,28.4,29.59,NNW,343,6.0,6.0,20,0.00,CLR,,0.00,WeatherDisplay:10.37,2013-10-13 20:45:00,
2013-10-13 15:50:00,72.1,28.8,29.59,NNW,337,6.0,6.0,20,0.00,CLR,,0.00,WeatherDisplay:10.37,2013-10-13 20:50:00,
2013-10-13 15:55:00,72.1,28.8,29.59,NNW,332,6.0,6.0,20,0.00,CLR,,0.00,WeatherDisplay:10.37,2013-10-13 20:55:00,
2013-10-13 16:00:00,72.0,28.7,29.59,NNW,328,6.0,6.0,20,0.00,CLR,,0.00,WeatherDisplay:10.37,2013-10-13 21:00:00,
2013-10-13 16:05:00,71.4,28.2,29.59,NNW,331,5.0,6.0,20,0.00,CLR,,0.00,WeatherDisplay:10.37,2013-10-13 21:05:00,
2013-10-13 16:10:00,71.8,28.5,29.59,NNW,327,5.0,5.0,20,0.00,CLR,,0.00,WeatherDisplay:10.37,2013-10-13 21:10:00,
2013-10-13 16:15:00,71.6,28.4,29.59,North,355,6.0,6.0,20,0.00,CLR,,0.00,WeatherDisplay:10.37,2013-10-13 21:15:00,
2013-10-13 16:20:00,71.1,29.1,29.59,North,352,6.0,6.0,21,0.00,CLR,,0.00,WeatherDisplay:10.37,2013-10-13 21:20:00,
2013-10-13 16:25:00,70.9,29.0,29.59,NNW,333,6.0,6.0,21,0.00,CLR,,0.00,WeatherDisplay:10.37,2013-10-13 21:25:00,
2013-10-13 16:30:00,70.9,29.0,29.59,NW,313,6.0,6.0,21,0.00,CLR,,0.00,WeatherDisplay:10.37,2013-10-13 21:30:00,
2013-10-13 16:35:00,70.3,28.5,29.59,NNW,328,5.0,6.0,21,0.00,CLR,,0.00,WeatherDisplay:10.37,2013-10-13 21:35:00,
2013-10-13 16:40:00,70.5,29.8,29.59,NNW,331,5.0,5.0,22,0.00,CLR,,0.00,WeatherDisplay:10.37,2013-10-13 21:40:00,
2013-10-13 16:45:00,70.5,30.9,29.59,NNW,332,5.0,5.0,23,0.00,CLR,,0.00,WeatherDisplay:10.37,2013-10-13 21:45:00,
2013-10-13 16:50:00,70.2,27.2,29.59,NNW,341,5.0,5.0,20,0.00,CLR,,0.00,WeatherDisplay:10.37,2013-10-13 21:50:00,
2013-10-13 16:55:00,70.3,29.7,29.59,NNW,344,6.0,6.0,22,0.00,CLR,,0.00,WeatherDisplay:10.37,2013-10-13 21:55:00,
2013-10-13 17:00:00,70.0,27.0,29.59,NNW,341,6.0,6.0,20,0.00,CLR,,0.00,WeatherDisplay:10.37,2013-10-13 22:00:00,
2013-10-13 17:05:00,69.6,29.1,29.59,North,6,6.0,6.0,22,0.00,CLR,,0.00,WeatherDisplay:10.37,2013-10-13 22:05:00,
2013-10-13 17:10:00,69.4,28.9,29.59,NNE,17,6.0,6.0,22,0.00,CLR,,0.00,WeatherDisplay:10.37,2013-10-13 22:10:00,
2013-10-13 17:15:00,69.1,29.7,29.59,NNE,28,6.0,6.0,23,0.00,CLR,,0.00,WeatherDisplay:10.37,2013-10-13 22:15:00,
2013-10-13 17:20:00,68.7,28.3,29.59,NNE,14,7.0,7.0,22,0.00,CLR,,0.00,WeatherDisplay:10.37,2013-10-13 22:20:00,
2013-10-13 17:25:00,68.5,29.2,29.59,North,10,7.0,7.0,23,0.00,CLR,,0.00,WeatherDisplay:10.37,2013-10-13 22:25:00,
2013-10-13 17:30:00,68.4,28.0,29.59,North,0,6.0,7.0,22,0.00,CLR,,0.00,WeatherDisplay:10.37,2013-10-13 22:30:00,
2013-10-13 17:35:00,68.0,27.7,29.59,North,2,6.0,6.0,22,0.00,CLR,,0.00,WeatherDisplay:10.37,2013-10-13 22:35:00,
2013-10-13 17:40:00,68.0,27.7,29.59,North,358,6.0,6.0,22,0.00,CLR,,0.00,WeatherDisplay:10.37,2013-10-13 22:40:00,
2013-10-13 17:45:00,67.6,30.5,29.59,North,4,5.0,5.0,25,0.00,CLR,,0.00,WeatherDisplay:10.37,2013-10-13 22:45:00,
2013-10-13 17:50:00,67.3,30.2,29.59,North,354,3.0,5.0,25,0.00,CLR,,0.00,WeatherDisplay:10.37,2013-10-13 22:50:00,
2013-10-13 17:55:00,66.9,29.9,29.59,NNW,344,3.0,4.0,25,0.00,CLR,,0.00,WeatherDisplay:10.37,2013-10-13 22:55:00,
2013-10-13 18:00:00,66.6,29.6,29.59,North,349,3.0,3.0,25,0.00,CLR,,0.00,WeatherDisplay:10.37,2013-10-13 23:00:00,
2013-10-13 18:05:00,66.6,29.6,29.59,North,355,3.0,3.0,25,0.00,CLR,,0.00,WeatherDisplay:10.37,2013-10-13 23:05:00,
2013-10-13 18:10:00,65.7,29.8,29.59,North,349,2.0,3.0,26,0.00,CLR,,0.00,WeatherDisplay:10.37,2013-10-13 23:10:00,
2013-10-13 18:15:00,65.3,30.4,29.59,NNW,343,2.0,3.0,27,0.00,CLR,,0.00,WeatherDisplay:10.37,2013-10-13 23:15:00,
2013-10-13 18:20:00,64.8,30.0,29.59,NNW,342,2.0,2.0,27,0.00,CLR,,0.00,WeatherDisplay:10.37,2013-10-13 23:20:00,
2013-10-13 18:25:00,64.8,30.0,29.59,NNW,342,2.0,2.0,27,0.00,CLR,,0.00,WeatherDisplay:10.37,2013-10-13 23:25:00,
2013-10-13 18:30:00,63.9,31.0,29.59,NNW,340,1.0,2.0,29,0.00,CLR,,0.00,WeatherDisplay:10.37,2013-10-13 23:30:00,
2013-10-13 18:34:00,63.7,30.8,29.59,NNW,340,1.0,1.0,29,0.00,CLR,,0.00,WeatherDisplay:10.37,2013-10-13 23:34:00,
2013-10-13 18:40:00,63.0,31.0,29.59,NNW,340,1.0,1.0,30,0.00,CLR,,0.00,WeatherDisplay:10.37,2013-10-13 23:40:00,
2013-10-13 18:45:00,63.0,31.0,29.59,NNW,340,1.0,1.0,30,0.00,CLR,,0.00,WeatherDisplay:10.37,2013-10-13 23:45:00,
2013-10-13 18:50:00,61.9,30.9,29.59,NNW,347,1.0,1.0,31,0.00,CLR,,0.00,WeatherDisplay:10.37,2013-10-13 23:50:00,
2013-10-13 18:55:00,61.3,31.2,29.59,NNW,348,1.0,1.0,32,0.00,CLR,,0.00,WeatherDisplay:10.37,2013-10-13 23:55:00,
2013-10-13 19:00:00,60.8,31.5,29.59,NNW,342,1.0,1.0,33,0.00,CLR,,0.00,WeatherDisplay:10.37,2013-10-14 00:00:00,
2013-10-13 19:05:00,60.1,32.3,29.59,NNW,340,1.0,1.0,35,0.00,CLR,,0.00,WeatherDisplay:10.37,2013-10-14 00:05:00,
2013-10-13 19:10:00,59.7,32.0,29.59,NNW,340,0.0,1.0,35,0.00,CLR,,0.00,WeatherDisplay:10.37,2013-10-14 00:10:00,
2013-10-13 19:15:00,59.0,31.4,29.59,NNW,342,0.0,0.0,35,0.00,CLR,,0.00,WeatherDisplay:10.37,2013-10-14 00:15:00,
2013-10-13 19:20:00,58.3,32.1,29.59,NNW,340,0.0,0.0,37,0.00,CLR,,0.00,WeatherDisplay:10.37,2013-10-14 00:20:00,
2013-10-13 19:25:00,58.5,32.3,29.59,NNW,342,0.0,0.0,37,0.00,CLR,,0.00,WeatherDisplay:10.37,2013-10-14 00:25:00,
2013-10-13 19:30:00,57.9,31.8,29.59,North,352,0.0,0.0,37,0.00,CLR,,0.00,WeatherDisplay:10.37,2013-10-14 00:30:00,
2013-10-13 19:35:00,57.9,31.8,29.59,North,0,0.0,0.0,37,0.00,CLR,,0.00,WeatherDisplay:10.37,2013-10-14 00:35:00,
2013-10-13 19:40:00,57.7,31.6,29.59,North,7,0.0,0.0,37,0.00,CLR,,0.00,WeatherDisplay:10.37,2013-10-14 00:40:00,
2013-10-13 19:45:00,57.0,31.6,29.59,NNE,19,0.0,0.0,38,0.00,CLR,,0.00,WeatherDisplay:10.37,2013-10-14 00:45:00,
2013-10-13 19:50:00,56.8,31.5,29.59,NNE,16,0.0,0.0,38,0.00,CLR,,0.00,WeatherDisplay:10.37,2013-10-14 00:50:00,
2013-10-13 19:55:00,57.0,31.6,29.62,North,8,0.0,0.0,38,0.00,CLR,,0.00,WeatherDisplay:10.37,2013-10-14 00:55:00,
2013-10-13 20:00:00,57.0,31.6,29.62,North,6,0.0,0.0,38,0.00,CLR,,0.00,WeatherDisplay:10.37,2013-10-14 01:00:00,
2013-10-13 20:05:00,57.0,31.6,29.62,North,10,0.0,0.0,38,0.00,CLR,,0.00,WeatherDisplay:10.37,2013-10-14 01:05:00,
2013-10-13 20:10:00,56.7,32.0,29.62,North,10,0.0,0.0,39,0.00,CLR,,0.00,WeatherDisplay:10.37,2013-10-14 01:10:00,
2013-10-13 20:14:00,56.3,31.6,29.62,NNE,15,0.0,0.0,39,0.00,CLR,,0.00,WeatherDisplay:10.37,2013-10-14 01:14:00,
2013-10-13 20:20:00,56.1,31.5,29.62,North,10,0.0,0.0,39,0.00,CLR,,0.00,WeatherDisplay:10.37,2013-10-14 01:20:00,
2013-10-13 20:25:00,55.9,31.3,29.62,North,10,0.0,0.0,39,0.00,CLR,,0.00,WeatherDisplay:10.37,2013-10-14 01:25:00,
2013-10-13 20:30:00,55.9,31.9,29.62,North,9,0.0,0.0,40,0.00,CLR,,0.00,WeatherDisplay:10.37,2013-10-14 01:30:00,
2013-10-13 20:35:00,55.8,31.8,29.62,North,5,0.0,0.0,40,0.00,CLR,,0.00,WeatherDisplay:10.37,2013-10-14 01:35:00,
2013-10-13 20:40:00,55.8,31.8,29.62,North,4,0.0,0.0,40,0.00,CLR,,0.00,WeatherDisplay:10.37,2013-10-14 01:40:00,
2013-10-13 20:45:00,55.8,31.2,29.62,North,359,0.0,0.0,39,0.00,CLR,,0.00,WeatherDisplay:10.37,2013-10-14 01:45:00,
2013-10-13 20:50:00,55.8,31.8,29.62,North,355,0.0,0.0,40,0.00,CLR,,0.00,WeatherDisplay:10.37,2013-10-14 01:50:00,
2013-10-13 20:55:00,55.4,31.5,29.62,North,355,0.0,0.0,40,0.00,CLR,,0.00,WeatherDisplay:10.37,2013-10-14 01:55:00,
2013-10-13 21:00:00,54.3,31.7,29.65,North,355,0.0,0.0,42,0.00,CLR,,0.00,WeatherDisplay:10.37,2013-10-14 02:00:00,
2013-10-13 21:05:00,54.3,31.7,29.65,North,355,0.0,0.0,42,0.00,CLR,,0.00,WeatherDisplay:10.37,2013-10-14 02:05:00,
2013-10-13 21:10:00,54.3,31.7,29.65,North,355,0.0,0.0,42,0.00,CLR,,0.00,WeatherDisplay:10.37,2013-10-14 02:10:00,
2013-10-13 21:15:00,53.8,32.4,29.65,North,356,0.0,0.0,44,0.00,CLR,,0.00,WeatherDisplay:10.37,2013-10-14 02:15:00,
2013-10-13 21:20:00,53.6,32.2,29.65,North,9,0.0,0.0,44,0.00,CLR,,0.00,WeatherDisplay:10.37,2013-10-14 02:20:00,
2013-10-13 21:25:00,53.6,32.8,29.65,North,9,0.0,0.0,45,0.00,CLR,,0.00,WeatherDisplay:10.37,2013-10-14 02:25:00,
2013-10-13 21:30:00,53.2,32.4,29.65,North,8,0.0,0.0,45,0.00,CLR,,0.00,WeatherDisplay:10.37,2013-10-14 02:30:00,
2013-10-13 21:34:00,53.2,32.4,29.65,North,5,0.0,0.0,45,0.00,CLR,,0.00,WeatherDisplay:10.37,2013-10-14 02:34:00,
2013-10-13 21:40:00,53.2,32.4,29.65,North,6,0.0,0.0,45,0.00,CLR,,0.00,WeatherDisplay:10.37,2013-10-14 02:40:00,
2013-10-13 21:45:00,53.1,32.8,29.65,North,6,0.0,0.0,46,0.00,CLR,,0.00,WeatherDisplay:10.37,2013-10-14 02:45:00,
2013-10-13 21:50:00,51.4,31.9,29.65,NNE,27,0.0,1.0,47,0.00,CLR,,0.00,WeatherDisplay:10.37,2013-10-14 02:50:00,
2013-10-13 21:55:00,51.3,32.2,29.65,NNE,33,1.0,1.0,48,0.00,CLR,,0.00,WeatherDisplay:10.37,2013-10-14 02:55:00,
2013-10-13 22:00:00,50.9,31.9,29.65,NE,37,1.0,1.0,48,0.00,CLR,,0.00,WeatherDisplay:10.37,2013-10-14 03:00:00,
2013-10-13 22:05:00,50.9,31.9,29.65,NE,42,2.0,2.0,48,0.00,CLR,,0.00,WeatherDisplay:10.37,2013-10-14 03:05:00,
2013-10-13 22:10:00,51.1,32.6,29.65,NE,45,2.0,2.0,49,0.00,CLR,,0.00,WeatherDisplay:10.37,2013-10-14 03:10:00,
2013-10-13 22:15:00,51.3,32.2,29.65,NE,45,3.0,3.0,48,0.00,CLR,,0.00,WeatherDisplay:10.37,2013-10-14 03:15:00,
2013-10-13 22:20:00,51.8,32.2,29.62,NE,45,3.0,3.0,47,0.00,CLR,,0.00,WeatherDisplay:10.37,2013-10-14 03:20:00,
2013-10-13 22:25:00,51.8,32.2,29.62,NE,47,3.0,4.0,47,0.00,CLR,,0.00,WeatherDisplay:10.37,2013-10-14 03:25:00,
2013-10-13 22:29:00,52.5,32.3,29.62,NE,50,5.0,5.0,46,0.00,CLR,,0.00,WeatherDisplay:10.37,2013-10-14 03:29:00,
2013-10-13 22:35:00,53.1,32.3,29.62,NE,51,5.0,5.0,45,0.00,CLR,,0.00,WeatherDisplay:10.37,2013-10-14 03:35:00,
2013-10-13 22:40:00,53.2,31.9,29.62,NE,52,6.0,6.0,44,0.00,CLR,,0.00,WeatherDisplay:10.37,2013-10-14 03:40:00,
2013-10-13 22:45:00,53.1,31.7,29.62,ENE,60,6.0,6.0,44,0.00,CLR,,0.00,WeatherDisplay:10.37,2013-10-14 03:45:00,
2013-10-13 22:50:00,52.7,31.4,29.62,ENE,71,6.0,6.0,44,0.00,CLR,,0.00,WeatherDisplay:10.37,2013-10-14 03:50:00,
2013-10-13 22:55:00,52.5,31.2,29.62,ENE,75,6.0,6.0,44,0.00,CLR,,0.00,WeatherDisplay:10.37,2013-10-14 03:55:00,
2013-10-13 23:00:00,52.0,31.3,29.62,East,84,7.0,7.0,45,0.00,CLR,,0.00,WeatherDisplay:10.37,2013-10-14 04:00:00,
2013-10-13 23:05:00,51.6,31.5,29.62,East,89,7.0,7.0,46,0.00,CLR,,0.00,WeatherDisplay:10.37,2013-10-14 04:05:00,
2013-10-13 23:10:00,51.6,31.5,29.62,East,86,7.0,7.0,46,0.00,CLR,,0.00,WeatherDisplay:10.37,2013-10-14 04:10:00,
2013-10-13 23:15:00,51.4,31.9,29.62,ENE,76,7.0,7.0,47,0.00,CLR,,0.00,WeatherDisplay:10.37,2013-10-14 04:15:00,
2013-10-13 23:20:00,51.3,31.7,29.62,ENE,75,7.0,7.0,47,0.00,CLR,,0.00,WeatherDisplay:10.37,2013-10-14 04:20:00,
2013-10-13 23:25:00,51.1,31.5,29.62,East,79,7.0,7.0,47,0.00,CLR,,0.00,WeatherDisplay:10.37,2013-10-14 04:25:00,
2013-10-13 23:30:00,50.7,31.7,29.62,East,82,7.0,7.0,48,0.00,CLR,,0.00,WeatherDisplay:10.37,2013-10-14 04:30:00,
2013-10-13 23:35:00,50.4,31.4,29.62,ENE,67,7.0,7.0,48,0.00,CLR,,0.00,WeatherDisplay:10.37,2013-10-14 04:35:00,
2013-10-13 23:40:00,50.4,31.4,29.62,ENE,60,6.0,7.0,48,0.00,CLR,,0.00,WeatherDisplay:10.37,2013-10-14 04:40:00,
2013-10-13 23:45:00,50.2,31.2,29.62,NE,51,6.0,6.0,48,0.00,CLR,,0.00,WeatherDisplay:10.37,2013-10-14 04:45:00,
2013-10-13 23:50:00,50.2,31.2,29.62,NE,45,5.0,6.0,48,0.00,CLR,,0.00,WeatherDisplay:10.37,2013-10-14 04:50:00,
2013-10-13 23:55:00,50.2,31.2,29.62,NE,45,3.0,5.0,48,0.00,CLR,,0.00,WeatherDisplay:10.37,2013-10-14 04:55:00,